Location: arnhem
(51.9714°N, 5.8997°E)
Time: 16:09:27
(UTC+02:00)

ISS - Visible Passes

Search period start: 18 July 2024 00:00
Search period end: 28 July 2024 00:00
Orbit: 410 x 424 km, 51.6° (Epoch: 18 July)

Date Brightness Start Highest point End Pass type
(mag) Time Alt. Az. Time Alt. Az. Time Alt. Az.
18 Jul -1.8 01:27:36 10° W 01:28:57 18° WSW 01:28:57 18° WSW visible
18 Jul -3.9 23:02:14 10° W 23:05:32 79° SSW 23:08:52 10° ESE visible
19 Jul -2.9 00:39:04 10° W 00:41:59 31° SSW 00:41:59 31° SSW visible
19 Jul -3.3 23:50:35 10° W 23:53:46 42° SSW 23:55:02 28° SSE visible
20 Jul -3.6 23:02:08 10° W 23:05:24 56° SSW 23:08:05 14° ESE visible
21 Jul -1.7 00:39:25 10° W 00:40:58 16° SW 00:40:58 16° SW visible
21 Jul -2.4 23:50:37 10° W 23:53:21 24° SSW 23:54:02 22° SSW visible
22 Jul -2.8 23:01:58 10° W 23:04:59 33° SSW 23:07:06 16° SSE visible
23 Jul -1.5 23:51:14 10° WSW 23:52:38 12° SW 23:53:03 12° SSW visible
24 Jul -1.8 23:01:58 10° W 23:04:17 18° SW 23:06:09 12° S visible
25 Jul -2.2 22:13:04 10° W 22:15:51 25° SSW 22:18:37 10° SSE visible
